Simultaneous Nadir Overpasses (SNOs) Predictions

Prediction of SNOs between GOES-14 and AQUA Satellite Orbit:

Table of predicted SNOs for the next 14.0 days since TLE Epoch: 2/10/2024
Index Date Time (GOES-14) GOES-14 Lat,Lon AQUA Lat,Lon Distance(km) Time Diff (sec)
1 02/10/2024 21:06:13 -0.01,-108.46 0.44,-106.47 227.11 80
2 02/11/2024 09:29:15 0.02,-108.44 0.68,-111.39 335.82 80
3 02/13/2024 09:11:01 0.01,-108.44 -0.14,-107.59 96.06 80
4 02/13/2024 21:34:13 -0.02,-108.45 -0.90,-112.56 467.56 80
5 02/15/2024 21:18:38 -0.02,-108.44 -0.08,-108.75 35.18 80
6 02/17/2024 21:00:22 -0.02,-108.43 0.74,-104.94 397.41 80
7 02/18/2024 09:23:24 0.02,-108.42 0.32,-109.87 164.95 80
8 02/20/2024 09:05:07 0.02,-108.41 -0.51,-106.06 267.98 80
9 02/20/2024 21:28:16 -0.03,-108.42 -0.61,-111.01 295.58 80
10 02/22/2024 21:09:59 -0.03,-108.41 0.23,-107.19 138.24 80
11 02/23/2024 09:33:00 0.04,-108.40 0.81,-112.13 423.39 80
